Regional Weather Roundup
Issued by NWS Pendleton, OR

Home | Current Version | Previous Version | Text Only | Print | Product List | Glossary On
Versions: 1 2 3 4 5 6 7 8 9 10 11 12 13 14 15 16 17 18 19 20 21 22 23 24 25 26 27 28 29 30 31 32 33 34 35 36 37 38 39 40 41 42 43 44 45 46 47 48 49 50
118
ASUS46 KPDT 280425
RWRPDT
PENDLETON REGIONAL WEATHER ROUNDUP
NATIONAL WEATHER SERVICE PENDLETON OREGON
900 PM PDT WED JUL 27 2016

NOTE: FAIR INDICATES FEW OR NO CLOUDS BELOW 12,000 FEET WITH NO
SIGNIFICANT WEATHER AND/OR OBSTRUCTIONS TO VISIBILITY.

# INDICATES UNOFFICIAL STATION AND DATA

WAZ520-280510-
EAST SLOPES OF WASHINGTON CASCADES

CITY            SKY/WX      TMP DP  RH  WIND    PRES   REMARKS
#CLE ELUM HS    N/A         73  58  59  W7      30.03R
#CLE ELUM 2NW   N/A         71  56  59  SW3     N/A
#GLENWOOD       N/A         73  60  64  CALM    29.93R
#MANASTASH CYN  N/A         71  48  44  CALM    30.07R
#NELSON 3SW     N/A         71  56  59  CALM    30.16R
#NILE           N/A         76  52  43  SW2     29.28R
#RONALD 2NW     N/A         71  N/A N/A CALM    30.17R
#TEANAWAY 4NE   N/A         74  61  64  W6      N/A
#TROUT LAKE 1NE N/A         77  56  48  W3      29.94R
#TROUT LAKE 1E  N/A         78  58  50  CALM    30.01R
$$

WAZ521-280510-
SIMCOE HIGHLANDS

CITY            SKY/WX      TMP DP  RH  WIND    PRES   REMARKS
#CENTERVILLE 1SWN/A         77  61  58  W6      29.88R
#GOLDENDALE 1NE N/A         81  42  25  SW1     N/A
#GOLDENDALE 4W  N/A         80  67  65  SW7     30.04R
#GOODNOE HILLS  N/A         84  55  37  W10     29.90
#LYLE 6NE       N/A         76  61  60  SW8     29.91R
$$

WAZ026-280510-
KITTITAS VALLEY

CITY            SKY/WX      TMP DP  RH  WIND    PRES   REMARKS
ELLENSBURG AP   CLEAR       79  54  42  NW18    30.02R
#ELLENSBURG CWU N/A         78  54  43  N13     29.88R
#ELLENSBURG 3NE N/A         76  57  52  N9      30.02R
#ELLENSBURG     N/A         80  57  45  W3      N/A
#KITTITAS 4N    N/A         76  56  50  W10     30.05R
#KITTITAS 3S    N/A         76  55  48  NW3     29.91R
#THORP 6N       N/A         73  56  55  NW10    29.98R
$$

WAZ027-280510-
YAKIMA VALLEY

CITY            SKY/WX      TMP DP  RH  WIND    PRES   REMARKS
SUNNYSIDE AP    CLEAR       74  63  69  N5      29.95R
YAKIMA AIRPORT  CLEAR       87  52  30  NW6     29.97R
YAKIMA-VAGABOND N/A         84  44  25  E8      29.97R
#DONALD 2NE     N/A         84  13   7  N2      28.82R
#GRANDVIEW      N/A         80  60  51  CALM    29.91R
#MABTON         N/A         79  56  45  CALM    29.93R
#NACHES 2SW     N/A         79  52  39  W10     30.01R
#TERRACE HTS    N/A         84  50  31  CALM    29.86R
#TOPPENISH      N/A         82  64  55  CALM    29.82R
#WEST VALLEY    N/A         84  50  31  N9      29.88R
#W YAKIMA       N/A         81  53  38  W2      29.92R
#WHITE SWAN 5E  N/A         79  64  60  NW1     29.90R
#WILEY CITY 3W  N/A         78  49  36  CALM    29.96R
$$

WAZ028-280510-
LOWER COLUMBIA BASIN...WASHINGTON

CITY            SKY/WX      TMP DP  RH  WIND    PRES   REMARKS
PASCO           CLEAR       86  56  36  CALM    29.91R
PROSSER AWOS    N/A         77  64  64  CALM    29.97R
RICHLAND AWOS   CLEAR       85  60  43  CALM    29.91R
#BENTON CITY    N/A         85  57  39  SW3     29.79R
#CONNELL 5N     N/A         78  54  43  CALM    29.88S
#CONNELL 5NW    N/A         78  61  56  CALM    29.85R
#ELTOPIA 6NW    N/A         85  59  41  CALM    28.92R
#KAHLOTUS       N/A         86  52  31  N7      29.88R
#KENNEWICK 3S   N/A         87  56  35  CALM    29.89R
#PATERSON       N/A         89  59  37  NE3     29.87R
#SAGEMOOR 2W    N/A         83  59  44  W1      29.74R
#TOUCHET 2S     N/A         79  58  49  CALM    29.85S
#WEST PASCO     N/A         85  61  45  CALM    29.89R
$$

WAZ029-280510-
FOOTHILLS OF THE BLUES...WASHINGTON

CITY            SKY/WX      TMP DP  RH  WIND    PRES   REMARKS
WALLA WALLA AP  CLEAR       85  56  37  SE6     29.95R
#CLYDE 6NW      N/A         84  51  32  CALM    29.87R
#DAYTON SCHOOL  N/A         77  49  37  N1      29.98R
#LOWDEN 2SE     N/A         80  62  54  CALM    29.88R
#PLEASANT VIEW 1N/A         85  51  31  W7      29.91R
#PRESCOTT       N/A         75  57  54  CALM    29.86R
#WHITMAN COLLEGEN/A         84  60  44  W3      29.93R
#WAITSBURG 5S   N/A         81  51  35  CALM    29.96R
#WALLA WALLA U  N/A         86  60  42  CALM    29.88R
#WHITMAN MISSIONN/A         84  61  46  CALM    29.89R
$$

WAZ030-280510-
BLUE MOUNTAINS...WASHINGTON

CITY            SKY/WX      TMP DP  RH  WIND    PRES   REMARKS
#DIXIE 5SE      N/A         79  53  41  S3      30.01S
$$

ORZ009-041-WAZ024-280510-
COLUMBIA RIVER GORGE

CITY            SKY/WX      TMP DP  RH  WIND    PRES   REMARKS
THE DALLES AP   CLEAR       83  60  46  NW15    29.94R
#ARLINGTON AIRPON/A         88  49  26  W2      29.91R
#ARLINGTON HS   N/A         94  47  20  CALM    29.78R HX 90
#LYLE           N/A         82  62  51  NW9     29.95R
#MARYHILL 2W    N/A         85  61  45  NW8     N/A
#MOSIER 1S      N/A         80  46  30  NW6     29.97R
#MURDOCK        N/A         84  61  46  NW18G26 29.89R
#RUFUS DOT      N/A         92  55  29  W13     N/A    HX 90
#SMITHVILLE     N/A         84  61  46  W16G25  29.81R

$$

ORZ510-280510-
NORTH CENTRAL OREGON

CITY            SKY/WX      TMP DP  RH  WIND    PRES   REMARKS
#ANTELOPE       N/A         80  46  30  N6      29.76R
#CHENOWITH 1W   N/A         77  58  52  W24     N/A
#COW CYN RST AREN/A         81  N/A N/A N9      N/A
#DUFUR 9E       N/A         76  59  56  NW5     29.97R
#GRASS VALLEY 1SN/A         76  54  46  N3      30.00R
#KENT DOT       N/A         79  39  24  N7      N/A
#MAUPIN SCHOOL  N/A         87  54  32  N6      30.00R
#SHANIKO 5WSW   N/A         79  39  24  N12     N/A
#SHANIKO 4NW    N/A         76  54  46  N12     30.12R
#TYGH VALLEY 2NEN/A         85  49  29  N13     29.90R
#WAPANITIA AIRPON/A         80  55  42  W6      29.93R
#WASCO AIRPORT  N/A         80  56  44  W8      N/A
#WASCO 5NE      N/A         79  60  52  N6      29.91R
$$

ORZ511-280510-
CENTRAL OREGON

CITY            SKY/WX      TMP DP  RH  WIND    PRES   REMARKS
BEND AIRPORT    CLEAR       81  36  20  CALM    30.09R
MADRAS AIRPORT  CLEAR       82  48  31  NW13    30.07R
PRINEVILLE AP   CLEAR       79  34  20  N7      30.08R
REDMOND AIRPORT CLEAR       81  30  16  N7      30.07R
#ASHWOOD SCHOOL N/A         82  41  23  CALM    30.01R
#BEND 1SW       N/A         72  40  31  CALM    N/A
#BEND-AWBREY    N/A         76  42  30  CALM    29.92R
#CULVER         N/A         77  49  37  N2      29.85R
#CULVER 8W      N/A         81  47  30  W5      30.08R
#LAKE BILLY CHINN/A         82  N/A N/A N13     30.09R
#MADRAS 4S      N/A         82  20  10  N7      30.12R
#POWELL BUTTE 3EN/A         82  35  18  N5      N/A
#POWELL BUTTE   N/A         75  37  25  SE1     29.97R
#PRINEVILLE 3N  N/A         72  47  41  CALM    29.97R
#WARM SPRINGS   N/A         84  53  34  CALM    29.98R

$$


ORZ509-280510-
EAST SLOPES OF OREGON CASCADES

CITY            SKY/WX      TMP DP  RH  WIND    PRES   REMARKS
SISTERS AWOS    N/A         79  54  42  W5      30.07R
#CAMP SHERMAN   N/A         73  53  49  CALM    30.02F
#LA PINE 4NW    N/A         72  49  44  CALM    29.96R
#LAVA BUTTE DOT N/A         74  36  25  CALM    N/A
#SISTERS AIRPOR N/A         78  61  56  N2      30.17S
#SISTERS ODOT   N/A         81  N/A N/A S3      N/A
#SISTERS 3N     N/A         75  50  41  CALM    30.08R
#SUNRIVER       N/A         74  43  33  CALM    30.08R
#TUMALO 3W      N/A         80  39  23  N1      29.80R
#WANOGA BUTTE D N/A         70  36  29  NE7     N/A

$$

ORZ044-280510-
LOWER COLUMBIA BASIN...OREGON

CITY            SKY/WX      TMP DP  RH  WIND    PRES   REMARKS
HERMISTON       CLEAR       83  57  41  E5      29.92R
#BOARDMAN 8SW   N/A         88  55  33  N2      29.89R
#ECHO 8SW       N/A         78  56  47  N1      29.94R
#I-84 EX 198 DOTN/A         87  58  38  CALM    N/A
#UMATILLA       N/A         86  56  36  CALM    29.82R
$$

ORZ507-280510-
NORTHERN FOOTHILLS OF THE BLUES

CITY            SKY/WX      TMP DP  RH  WIND    PRES   REMARKS
PENDLETON AIRPT CLEAR       77  47  35  N8      29.97S
#ADAMS 3WNW     N/A         75  51  43  CALM    29.88R
#ATHENA         N/A         74  52  46  CALM    29.92R
#CAYUSE         N/A         79  53  41  E3      29.88R
#HELIX SCHOOL   N/A         75  52  45  N3      29.90R
#HELIX 3N       N/A         76  51  42  CALM    29.98R
#HOLDMAN 5SE    N/A         77  50  39  CALM    29.97R
#HOLDMAN 6E     N/A         81  52  37  S1      29.71R
#M-F GROVE ELEM N/A         85  53  33  CALM    29.93R
#M-FREEWATER 5SEN/A         75  58  56  CALM    29.97R
#PENDLETON DNTN N/A         83  46  27  CALM    29.98R
#PDT AQUATIC CTRN/A         82  47  29  N7      29.80S
#PDT SUNRIDGE   N/A         84  52  33  CALM    29.97R
#PENDLETON 7NW  N/A         82  55  40  CALM    31.70S
#PILOT ROCK 1S  N/A         78  47  34  CALM    30.01R
#PILOT ROCK     N/A         81  49  33  SW1     30.03R
#TUTUILLA       N/A         75  51  43  CALM    29.93R
#UMAPINE 2E     N/A         71  62  73  CALM    29.90R
#WESTON SCHOOL  N/A         75  50  41  CALM    29.84R

$$

ORZ508-280510-
SOUTHERN FOOTHILLS OF THE BLUES

CITY            SKY/WX      TMP DP  RH  WIND    PRES   REMARKS
LEXINGTON       CLEAR       77  48  36  E6      30.03R
#CONDON 5W      N/A         76  41  28  N5      30.08R
#HEPPNER EOC    N/A         80  51  36  CALM    29.84R
#HEPPNER 4NE    N/A         72  48  43  E1      29.91R
#LEXINGTON 2SE  N/A         80  51  36  CALM    29.95R
#RUGGS 5NE      N/A         78  49  36  VRB7    30.27R
#RUGGS 2SW      N/A         74  45  35  W1      29.93R

$$

ORZ502-503-280510-
BLUE MOUNTAINS

CITY            SKY/WX      TMP DP  RH  WIND    PRES   REMARKS
MEACHAM         CLEAR       68  47  47  CALM    30.14R
#BATTLE MTN DOT N/A         72  47  41  N3      N/A
#CUTSFORTH PARK N/A         64  52  65  CALM    29.93R
#GREENHORN 9SW  N/A         74  43  33  CALM    26.26R
#HARDMAN 10S    N/A         61  34  36  N5      30.22R
#HEPPNER 15SE   N/A         70  50  49  CALM    30.08R
#LADD CYN SMT   N/A         77  47  35  NW8     N/A
#LADD CREEK ODOTN/A         75  51  43  NE3     N/A
#LONG CREEK HS  N/A         75  48  38  CALM    N/A
#N POWDER DOT   N/A         76  51  42  N6      N/A
#PIKES PEAK     N/A         77  52  42  CALM    27.99S
#TOLLGATE       N/A         63  52  67  CALM    30.05R
#TROY SCHOOL    N/A         82  59  46  CALM    29.72R
#UKIAH          N/A         74  49  41  N1      29.86R
#WESTON 4E      N/A         73  53  49  CALM    29.88R
$$

ORZ505-280510-
JOHN DAY BASIN

CITY            SKY/WX      TMP DP  RH  WIND    PRES   REMARKS
JOHN DAY        CLEAR       82  46  28  CALM    30.10R
#DAYVILLE SCHOOLN/A         86  41  21  CALM    29.99R
#MITCHELL       N/A         84  51  32  CALM    30.23R
#MITCHELL 8NW   N/A         80  38  22  CALM    30.09R
#MONUMENT HS    N/A         86  46  25  VRB5    29.86R
#MT. VERNON 5SE N/A         79  46  31  CALM    30.08R
#SPRAY SCHOOL   N/A         85  N/A N/A N1      N/A
$$

ORZ506-280510-
OCHOCO AND JOHN DAY HIGHLANDS

CITY            SKY/WX      TMP DP  RH  WIND    PRES   REMARKS
#HORSE RIDGE DO N/A         81  30  16  NW8     N/A
#PAULINA SCHOOL N/A         83  32  16  N6      N/A
#PINE MTN OBS   N/A         68  35  29  N6      N/A
#PRAIRIE CITY   N/A         77  42  29  CALM    30.22R
#SENECA         N/A         74  N/A N/A CALM    N/A
#SENECA 9NW     N/A         73  42  33  CALM    29.85R
$$

ORZ049-280510-
GRANDE RONDE VALLEY

CITY            SKY/WX      TMP DP  RH  WIND    PRES   REMARKS
LA GRANDE       CLEAR       77  45  32  N7      30.05R
#COVE           N/A         79  50  36  N2      30.09R
#COVE SCHOOL    N/A         79  47  32  CALM    30.07R
#COVE 6NW       N/A         72  49  44  N3      29.94R
#ELGIN 3N       N/A         74  46  37  CALM    30.04R
#ELGIN 1E       N/A         79  52  39  CALM    N/A
#IMBLER SCHOOL  N/A         77  50  39  NW3     30.01R
#ISLAND CITY 4N N/A         76  61  60  CALM    30.03R
#LADD CYN DOT   N/A         81  53  38  NE3     N/A
#UNION 1S       N/A         77  51  40  CALM    29.81R
$$

ORZ050-280510-
WALLOWA COUNTY

CITY            SKY/WX      TMP DP  RH  WIND    PRES   REMARKS
JOSEPH AIRPORT  CLEAR       64  43  46  S3      N/A
#ENTERPRISE AP  N/A         49  29  46  CALM    30.06R
#ENTERPRISE HS  N/A         75  44  33  CALM    30.10R
#IMNAHA SCHOOL  N/A         84  53  34  CALM    29.97R
#IMNAHA 10S     N/A         79  50  36  CALM    30.03R
#JOSEPH 3N      N/A         64  44  48  S1      30.15R
#JOSEPH 3W      N/A         71  43  36  SW1     30.02R
#LOSTINE        N/A         71  47  42  CALM    29.72R
#LOSTINE 3SE    N/A         67  43  42  CALM    30.09R
#MT HOWARD 8000 N/A         60  35  39  N6      30.45R
#PROMISE 1S     N/A         75  55  50  CALM    29.99R
#WALLOWA SCHOOL N/A         75  45  34  CALM    30.02R



$$



USA.gov is the U.S. government's official web portal to all federal, state and local government web resources and services.